Regional Weather Roundup
Issued by NWS

Home | Current Version | Previous Version | Text Only | Print | Product List | Glossary Off
Versions: 1 2 3 4 5 6 7 8 9 10 11 12 13 14 15 16 17 18 19 20 21 22 23 24 25 26 27

000
ASUS45 KBOI 221510
RWRID
WEATHER ROUNDUP FOR IDAHO
NATIONAL WEATHER SERVICE BOISE ID
900 AM MDT TUE APR 22 2014

NOTE: "FAIR" INDICATES FEW OR NO CLOUDS BELOW 12000 FEET
WITH NO SIGNIFICANT WEATHER AND/OR OBSTRUCTIONS TO VISIBILITY

IDZ012-014-221600-
SOUTHWEST IDAHO


CITY           SKY/WX    TMP DP  RH WIND       PRES   REMARKS
BOISE          LGT RAIN  48  44  86 N7        29.78S
CALDWELL       CLOUDY    46  39  76 NE12      29.79F
MOUNTAIN HOME  CLOUDY    54  38  55 N20G25    29.73F
$$

IDZ016-017-221600-
SOUTHCENTRAL IDAHO


CITY           SKY/WX    TMP DP  RH WIND       PRES   REMARKS
BURLEY         CLOUDY    56  40  55 N9        29.67S
JEROME         CLOUDY    56  32  40 W9        29.71F
TWIN FALLS     CLOUDY    56  29  35 W18G26    29.72F
$$

IDZ019>023-221600-
SOUTHEAST IDAHO


CITY           SKY/WX    TMP DP  RH WIND       PRES   REMARKS
IDAHO FALLS    CLOUDY    56  40  55 E8        29.76F
POCATELLO      SUNNY     59  39  47 E16       29.69F
REXBURG        CLOUDY    49  43  80 NE10      29.78F
$$

IDZ006-010-011-018-031-032-221600-
CENTRAL IDAHO MOUNTAINS


CITY           SKY/WX    TMP DP  RH WIND       PRES   REMARKS
MCCALL         RAIN      36  33  89 E5        29.77F WCI  32
HAILEY         CLOUDY    52  39  62 NW9       29.76F
STANLEY          N/A     38  35  89 SE7       29.79F WCI  33
SALMON         PTSUNNY   39  30  70 N3        29.66F
CHALLIS        PTSUNNY   52  33  48 S9        29.71F
$$

IDZ002-004-006-007-026-221600-
NORTHERN IDAHO


CITY           SKY/WX    TMP DP  RH WIND       PRES   REMARKS
LEWISTON       LGT RAIN  48  41  76 NW7       29.73S
LOWELL           N/A     43  39  86 VRB3      29.80R
COEUR D`ALENE  CLOUDY    46  43  87 S10       29.69S
MULLAN PASS    LGT SNOW  34  30  86 CALM      29.70S FOG
$$



USA.gov is the U.S. government's official web portal to all federal, state and local government web resources and services.